Regional Weather Roundup
Issued by NWS

Home | Current Version | Previous Version | Graphics & Text | Print | Product List | Glossary On
Versions: 1 2 3 4 5 6 7 8 9 10 11 12 13 14 15 16 17 18 19 20 21 22 23 24 25 26 27 28 29 30 31 32 33 34 35 36 37 38 39 40 41 42 43 44 45 46 47 48 49 50
000
ASUS45 KABQ 071001
RWRNM
NEW MEXICO REGIONAL WEATHER ROUNDUP
NATIONAL WEATHER SERVICE ALBUQUERQUE NM
300 AM MST SUN FEB 07 2016

NOTE: "FAIR" MEANS FEW OR NO CLOUDS BELOW 12,000 FEET AGL WITH NO
       SIGNIFICANT WEATHER OR OBSTRUCTIONS TO VISION.

      THIS PRODUCT IS RELEASED AS TWO VERSIONS.  ONE VERSION NEAR
      THE TOP OF THE HOUR CONTAINING PRELIMINARY DATA FROM ALBUQUERQUE
      AND OTHER STATIONS.  A FINAL VERSION WITH ADDITIONAL DATA IS
      ISSUED ABOUT 10 MINUTES AFTER THE HOUR.

NMZ501-503-504-510>518-071100-
NORTHWEST PLATEAU/NORTHCENTRAL MOUNTAINS

CITY           SKY/WX    TMP DP  RH WIND       PRES   REMARKS
FARMINGTON     CLOUDY    18  14  84 NE5       30.41F WCI  11
SANTA FE       CLOUDY    27  15  61 NW12      30.28F WCI  17
TAOS           CLOUDY     9   7  92 N3        30.33S

$$
NMZ402-403-502-505>509-071100-
WESTCENTRAL MOUNTAINS/SOUTHWEST MOUNTAINS

CITY           SKY/WX    TMP DP  RH WIND       PRES   REMARKS
GALLUP         CLEAR     17  13  84 CALM      30.40F
SILVER CITY      N/A     27  14  59 N13       30.32S WCI  16

$$
NMZ407-409-411-412-071100-
SOUTHERN DESERTS

CITY           SKY/WX    TMP DP  RH WIND       PRES   REMARKS
DEMING         CLEAR     24   8  50 NW6       30.32R WCI  17
HOLLOMAN AFB   CLEAR     23   2  40 NE2       30.28F
ALAMOGORDO     CLEAR     27   3  36 N6        30.29F WCI  20
T OR C         CLEAR     31   6  35 N3        30.32R

$$
NMZ519>523-071100-
CENTRAL VALLEYS/CENTRAL HIGHLANDS

CITY           SKY/WX    TMP DP  RH WIND       PRES   REMARKS
ALBUQUERQUE    CLOUDY    34  14  43 N6        30.36S WCI  29
DOUBLE EAGLE   CLOUDY    30  15  53 N9        30.35S WCI  21
CLINES CORNERS CLOUDY    26  14  60 NW22      30.22F WCI  12
BELEN          FAIR      22  12  64 CALM      30.36F
SOCORRO        NOT AVBL

$$
NMZ524>526-539-540-071100-
SOUTHCENTRAL MOUNTAINS

CITY           SKY/WX    TMP DP  RH WIND       PRES   REMARKS
RUIDOSO          N/A     39   7  26 W22G33    30.27S WCI  29

$$
NMZ527>531-071100-
NORTHEAST HIGHLANDS/NORTHEAST PLAINS

CITY           SKY/WX    TMP DP  RH WIND       PRES   REMARKS
LAS VEGAS      CLOUDY    31  13  47 NE9       30.18F WCI  23
RATON          CLOUDY    21  14  74 NE9       30.16F WCI  11
CLAYTON        CLOUDY    44  13  28 NW13      30.09F

$$
NMZ532>537-071100-
EASTCENTRAL PLAINS

CITY           SKY/WX    TMP DP  RH WIND       PRES   REMARKS
TUCUMCARI      CLOUDY    28  16  60 W9        30.13F WCI  19
CANNON AFB     CLOUDY    34  17  49 NW7       30.11F WCI  28
CLOVIS AIRPORT CLOUDY    32  16  51 NW10      30.12F WCI  24

$$
NMZ028-029-538-071100-
SOUTHEAST PLAINS

CITY           SKY/WX    TMP DP  RH WIND       PRES   REMARKS
ROSWELL        CLOUDY    27  14  58 CALM      30.18S
ARTESIA        CLOUDY    37   9  30 NW8       30.18R WCI  31
CARLSBAD       CLOUDY    35   9  33 VRB3      30.16F
HOBBS          CLOUDY    27  10  50 NW5       30.17F WCI  21


$$



USA.gov is the U.S. government's official web portal to all federal, state and local government web resources and services.